Weather in Verkh-Ushnur

Russia / Mari El Republic     56°46′30″N   48°38′44″E
temp.,
°C
wind,
m/s
gust,
m/s
humid.,
%
clouds,
%
prec.,
mm/h
press.,
hPa
HPBL,
m
22 may, sun
sun2200:00−1nw389877 0.0 1006221
03:000nnw469599 0.1 1005446
06:00+1nnw458577 0.3 1003619
09:00+2nnw4574100 0.3 10031035
12:00+2nw4571100 0.1 10021197
15:00+3nw4563100 0.2 10021078
18:00+4nw3564100 0.1 10011079
21:000wnw348353 0.1 100063
23 may, mon
mon2300:00−1wnw359349 0.0 999102
03:00−2wnw34965 0.0 99971
06:00+1w358562 0.0 998373
09:00+4w5669100 0.1 9981152
12:00+5w5669100 0.3 9981245
15:00+5wsw5669100 0.7 9991332
18:00+5sw467599 0.4 998937
21:00+2sw3991100 0.6 999340
24 may, tue
tue2400:00+1ssw3699100 0.6 999301
03:00+1ssw3699100 1.7 999286
06:000sw5896100 1.8 1001422
09:00+4ssw458090 1.8 1002979
12:00+5sw5786100 0.5 1003772
15:00+4sw249083 1.2 1005521
18:00+5sw2481100 0.2 1006642
21:00+1sw22915 0.4 100720
25 may, wed
wed2500:000wsw22935 0.0 100823
03:00−1wsw22955 0.0 100930
06:00+2wsw249137 0.0 1009240
09:00+5w3480100 0.1 1009820
12:00+7w4468100 0.3 10091290
15:00+8w456496 0.3 10101193
18:00+7w357889 0.6 1010546
21:00+4wsw2595100 0.8 1010170
26 may, thu
thu2600:00+3w3698100 0.8 1010493
03:00+2w4898100 0.9 1010401
06:00+3wsw4998100 0.8 1009546
09:00+4w5788100 0.9 1009842
12:00+7w5780100 0.1 1008977
15:00+8wsw4682100 1.0 1007844
18:00+6sw4794100 1.9 1006508
21:00+5ssw369787 2.9 1005208